User: anonymous   Login
Location: Corralito
(14.1667°N, 87.1833°W)
Time: 13:48:25
(UTC+00:00)
Language:

STARLINK-1074 - Orbit

View from above orbital plane
View from above orbital plane
View from above satellite
View from above satellite

Ground track
Ground track

The orbit data is extracted from the following two-line orbital elements,

1 44957U 20001AV  20219.25001157  .00003407  00000-0  25279-3 0  9999
2 44957  53.0000 110.9986 0001299  95.9654   7.0613 15.05589625 32729
Epoch (UTC): 06 August 2020 06:00:01
Eccentricity: 0.0001299
inclination: 53.0000°
perigee height: 549 km
apogee height: 550 km
right ascension of ascending node: 110.9986°
argument of perigee: 95.9654°
revolutions per day: 15.05589625
mean anomaly at epoch: 7.0613°
orbit number at epoch: 3272

The dashed part of the orbit path shows where the satellite is in the earth's shadow,  

DLR